Regional Weather Roundup
Issued by NWS Jackson, KY

Home | Current Version | Previous Version | Text Only | Print | Product List | Glossary On
Versions: 1 2 3 4 5 6 7 8 9 10 11 12 13 14 15 16 17 18 19 20 21 22 23 24 25 26 27 28 29 30 31 32 33 34 35 36 37 38 39 40 41 42 43 44 45 46 47 48 49 50
000
ASUS43 KJKL 061310
RWRJKL

EAST KENTUCKY HOURLY WEATHER ROUNDUP
NATIONAL WEATHER SERVICE JACKSON KY
800 AM EST FRI MAR 06 2015

NOTE: "FAIR" INDICATES FEW OR NO CLOUDS BELOW 12,000 FEET WITH
NO SIGNIFICANT WEATHER AND/OR OBSTRUCTIONS TO VISIBILITY.

* THESE REPORTS ARE NOT UNDER NWS QUALITY CONTROL AND MAY NOT
  REPORT WEATHER SUCH AS PRECIPITATION AND FOG.

KYZ079-080-083-085-087-088-110-112-115-119-120-061400
...EASTERN KENTUCKY...

CITY           SKY/WX    TMP DP  RH WIND       PRES   REMARKS
JACKSON        MOSUNNY   10   7  87 CALM      30.49R
LONDON         MOSUNNY    5  -1  76 NW3       30.50R
SOMERSET*      MOSUNNY    5   3  92 CALM      30.56R
MONTICELLO*    SNOW      -8 -11  84 CALM      30.57R VSB 1/4
MIDDLESBORO*   MOSUNNY   12  10  91 CALM      30.51R
HAZARD APT*    SUNNY      5   3  92 CALM      30.50S
BLACK MTN*       N/A      3   3 100 CALM        N/A
PIKEVILLE APT* SUNNY     10   9  92 CALM      30.48S
BIG SANDY*     MOSUNNY    8   5  90 CALM      30.50S
MOREHEAD APT*  MOSUNNY    7   3  85 CALM      30.56R
$$

KYZ035-036-041-042-044-050-067-078-099-061400
...CENTRAL KENTUCKY...

CITY           SKY/WX    TMP DP  RH WIND       PRES   REMARKS
MT STERLING*   PTSUNNY  N/A N/A N/A CALM      30.55R
FLEMING/MASON* FOG      N/A N/A N/A CALM      30.56R VSB 0
DANVILLE*      MOSUNNY   -2  -6  84 CALM      30.54S
RICHMOND*        N/A    N/A N/A N/A CALM      30.53R VSB<1/4
LEXINGTON      MOSUNNY   -2  -3  96 SE5       30.54R WCI -12
FRANKFORT      PTCLDY    -6  -9  86 CALM      30.55R FOG
$$

KYZ091>093-OHZ055-061-077-WVZ005-015-034-035-042-061400
...SOUTHERN OHIO/WEST VIRGINIA...

CITY           SKY/WX    TMP DP  RH WIND       PRES   REMARKS
COVINGTON      PTCLDY     4   1  88 CALM      30.54R
COLUMBUS       PTSUNNY    7   2  80 CALM      30.54R
DAYTON         PTCLDY    10   5  80 SW5       30.53R WCI   2
WILMINGTON     MOSUNNY    6   1  80 CALM      30.52R
HUNTINGTON     PTSUNNY    2   1  96 CALM      30.55R FOG
CHARLESTON     PTSUNNY    6   5  95 CALM      30.53S
PINEVILLE*     SUNNY      6   4  93 MISG      30.51R
BECKLEY        MOSUNNY    7   5  91 CALM      30.38R FOG
BLUEFIELD      MOSUNNY   10   5  80 CALM      30.35S
$$

VAZ002-007-008-TNZ017-027-036-066-071-061400
...SOUTHWEST VIRGINIA/EAST TENNESSEE...

CITY           SKY/WX    TMP DP  RH WIND       PRES   REMARKS
WISE*          PTSUNNY    9   9 100 E3        30.37S
JONESVILLE*    PTSUNNY    9   7  92 CALM      30.50S
ABINGDON*      MOSUNNY   17  12  82 E3        30.41S
BRISTOL        MOSUNNY   15  10  80 CALM      30.46S
KNOXVILLE      FLURRIES  20  14  77 N9        30.47S WCI   9
OAK RIDGE      MOSUNNY   19  11  70 NE5       30.50S WCI  12
CROSSVILLE     MOSUNNY   13   8  81 NE6       30.42R WCI   4
NASHVILLE      PTCLDY    12   6  77 NW5       30.57R WCI   4
$$

...KEY TO REMARKS...
VSB - VISIBILITY IN MILES
WCI - WIND CHILL INDEX
HX  - HEAT INDEX

$$


USA.gov is the U.S. government's official web portal to all federal, state and local government web resources and services.